Flag for Antigua and Barbuda Weather past 2 weeks in Saint John's, Antigua and Barbuda

Now
84 °F

Scattered clouds.


Feels Like: 91 °F
Forecast: 78 / 85 °F
Wind: 9 mph from East

Location: Vc Bird International Antigua Airport

Current Time: Oct 21, 2014 at 9:10:09 AM

Latest Report: Oct 21, 2014 at 8:00 AM


Visibility: N/A

Pressure: 29.95 "Hg

Humidity: 70%

Dew point: 73 °F

Location of Saint John'sLocation

Historic Weather in Saint John's — Graph

°F

Saint John's temperature yesterday

Maximum temperature yesterday: 86 °F (at 11:00 AM)
Minimum temperature yesterday: 77 °F (at 1:00 AM)
Average temperature yesterday: 82 °F

Past Weeks' High & Low Weather Summary

 TemperatureHumidityPressure
High90 °F (Oct 9, 1:00 PM)94% (Oct 9, 7:00 AM)30.04 "Hg (Oct 9, 7:00 AM)
Low73 °F (Oct 17, 6:00 AM)55% (Oct 9, 1:00 PM)29.71 "Hg (Oct 13, 7:00 AM)
Average82 °F76%29.91 "Hg
* Reported Oct 6 8:00 AM — Oct 21 8:00 AM, Saint John's, Weather by CustomWeather, © 2014

Note: Actual official high and low records may vary slightly from our data, if they occured in-between our weather recording intervals... More about our weather records

Advertising

Saint John's weather history for previous 24 hours

 ConditionsComfort  
Time TempWeatherWind HumidityBarometerVisibility
8:00 AM
Oct 21
84 °FScattered clouds.9 mph70%29.95 "HgN/A
7:00 AM82 °FScattered clouds.7 mph70%29.92 "HgN/A
6:00 AM81 °FPassing clouds.8 mph74%29.92 "HgN/A
5:00 AM81 °FPassing clouds.6 mph74%29.89 "HgN/A
4:00 AM81 °FPassing clouds.7 mph74%29.92 "HgN/A
3:00 AM81 °FPassing clouds.6 mph74%29.89 "HgN/A
2:00 AM81 °FPassing clouds.6 mph74%29.92 "HgN/A
1:00 AM81 °FPassing clouds.7 mph74%29.95 "HgN/A
12:00 AM81 °FPassing clouds.7 mph74%29.95 "HgN/A
11:00 PM
Oct 20
81 °FPassing clouds.7 mph70%29.95 "HgN/A
10:00 PM81 °FPassing clouds.6 mph74%29.95 "HgN/A
9:00 PM81 °FPassing clouds.7 mph74%29.95 "HgN/A
8:00 PM81 °FPassing clouds.6 mph74%29.92 "HgN/A
7:00 PM81 °FPassing clouds.5 mph74%29.92 "HgN/A
6:00 PM81 °FPassing clouds.6 mph70%29.92 "HgN/A
5:00 PM82 °FPassing clouds.7 mph66%29.92 "HgN/A
4:00 PM84 °FPassing clouds.7 mph66%29.89 "HgN/A
3:00 PM84 °FScattered clouds.8 mph70%29.89 "HgN/A
2:00 PM86 °FScattered clouds.8 mph66%29.92 "HgN/A
1:00 PM84 °FScattered clouds.9 mph70%29.95 "HgN/A
12:00 PM86 °FPassing clouds.8 mph59%29.95 "HgN/A
11:00 AM86 °FPassing clouds.8 mph62%29.98 "HgN/A
10:00 AM84 °FPassing clouds.8 mph70%29.98 "HgN/A
9:00 AM84 °FPassing clouds.8 mph70%29.98 "HgN/A
Weather by CustomWeather, © 2014

See weather overviewHow to use our weather pages